Regional Weather Roundup
Issued by NWS Charleston, SC

Current Version | Previous Version | Graphics & Text | Print | Product List | Glossary On
Versions: 1 2 3 4 5 6 7 8 9 10 11 12 13 14 15 16 17 18 19 20 21 22 23 24 25 26 27 28 29 30 31 32 33 34 35 36 37 38 39 40 41 42 43 44 45 46 47 48 49 50
000 ASUS42 KCHS 302311 RWRCHS REGIONAL WEATHER ROUNDUP NATIONAL WEATHER SERVICE CHARLESTON SC 600 PM EST FRI JAN 30 2015 NOTE: "FAIR" INDICATES FEW OR NO CLOUDS BELOW 12,000 FEET WITH NO SIGNIFICANT WEATHER AND/OR OBSTRUCTIONS TO VISIBILITY. NOT ALL STATIONS ARE QUALITY CONTROLLED BY THE NATIONAL WEATHER SERVICE. USE DATA WITH CAUTION...ESPECIALLY DEWPOINT OBSERVATIONS. SCZ027-030-031-034>040-042>050-310000- ...SOUTHEAST SOUTH CAROLINA... CITY SKY/WX TMP DP RH WIND PRES REMARKS N CHARLESTON PTCLDY 50 23 34 NW7 30.20R WATERFRONT PRK N/A 54 N/A N/A NW12G20 N/A MOUNT PLEASANT FAIR 52 27 37 NW10 30.18R PINOPOLIS N/A 54 37 54 NW10 30.08F MONCKS CORNER FAIR 52 25 35 NW3 30.19R SUMMERVILLE FAIR 52 25 35 NW10G16 30.19R BEAUFORT MCAS CLEAR 54 29 38 NW7 30.20R BEAUFORT ARPT FAIR 54 34 47 NW6 30.19R HILTON HEAD IS CLEAR 55 36 47 NW5 30.20R WALTERBORO CLEAR 52 12 20 NW5 30.21R ALLENDALE FAIR 52 27 37 CALM 30.20R ...SOUTHERN MIDLANDS AND PEE DEE... CITY SKY/WX TMP DP RH WIND PRES REMARKS GEORGETOWN NOT AVBL KINGSTREE NOT AVBL ORANGEBURG CLEAR 51 17 26 N8 30.21R BARNWELL FAIR 52 28 40 W5 30.21R AIKEN FAIR 50 25 37 NW5 30.24R MANNING FAIR 52 23 32 NW5 30.19R COLUMBIA CLEAR 50 18 28 N7 30.22R SUMTER CLEAR 49 21 33 NW5 30.19R FLORENCE CLEAR 47 17 30 N9 30.19R MYRTLE BEACH CLEAR 50 21 32 MISG 30.18R N MYRTLE BEACH CLEAR 48 20 32 NW7 30.16R $$ GAZ063-065-086>088-099>101-113>116-118-119-134>141-150-310000- ...SOUTHEAST GEORGIA... CITY SKY/WX TMP DP RH WIND PRES REMARKS SAVANNAH ARPT PTCLDY 54 26 34 NW7 30.20R HUNTER AAF CLEAR 55 27 34 NW8 30.18R FORT STEWART CLEAR 54 27 35 NW8 30.20R STATESBORO CLEAR 52 28 40 NW8 30.22R SYLVANIA CLEAR 52 30 42 NW10 30.22R CLAXTON FAIR 52 32 46 NW7 30.22R ...CSRA...CENTRAL AND FAR SOUTHEAST GEORGIA... CITY SKY/WX TMP DP RH WIND PRES REMARKS THOMSON CLEAR 53 28 37 W7 30.27R AUGUSTA-BUSH CLEAR 52 22 30 NW7 30.23R AUGUSTA-DANIEL CLEAR 53 22 29 NW8 30.22R SWAINSBORO FAIR 54 10 17 NW5 30.24R VIDALIA CLEAR 52 30 43 NW7 30.22S EASTMAN FAIR 52 27 37 CALM 30.27R HAZLEHURST FAIR 55 30 38 NW5 30.22R ALMA PTCLDY 55 27 34 NW5 30.22R WAYCROSS PTCLDY 57 33 40 NW8 30.22R JESUP FAIR 59 32 36 CALM 30.21R BAXLEY FAIR 55 30 38 NW6 30.22R BRUNSWICK CLEAR 55 27 33 NW3 30.21R SAINT SIMONS CLEAR 57 29 34 NW6 30.20R $$ SCZ027-028-034-036>038-045-046-048>050-GAZ119-141-310000- ...LAKE AND SUPPLEMENTAL COASTAL OBSERVATIONS... STATION/POSITION TIME TEMP WIND PRES WAVE SWELL AIR SEA DIR/SP/G HT/PER HT/PER/DIR (UTC) (F) (DEG/KT/KT) (MB) (FT/S) (FT/S/D) UPR LAKE MARION NOT AVBL WINYAH BAY NOT AVBL LAKE MURRAY 2200 52 330/ 4/ 9 1022.0R ACE BASIN NERRS NOT AVBL FORT PULASKI 2200 57 53 300/ 12/ 14 1022.1R SAPELO ISLAND 2200 60 320/ 12 1022.0R $$ ANZ835-935-AMZ111-154-330-350-352-354-370-450-454-472-310000- ...C-MAN AND BUOY OBSERVATIONS... STATION/POSITION TIME TEMP WIND PRES WAVE SWELL AIR SEA DIR/SP/G HT/PER HT/PER/DIR (UTC) (F) (DEG/KT/KT) (MB) (FT/S) (FT/S/D) BUOY 41004 2250 56 68 320/ 19/ 25 1020.3R 5/ 5 2/11 BUOY 41008 2250 55 54 340/ 10/ 12 1021.9R 2/11 2/ 70/11 FOLLY BEACH CMAN 2300 52 330/ 6/ 9 1022.8R CAPERS NEARSHORE 2200 53 320/ 17/ 19 N/A FRIPP NEARSHORE 2200 56 340/ 14/ 17 1020.7R STATION/POSITION TIME TEMP WIND PRES WAVE SWELL AIR SEA DIR/SP/G HT/PER HT/PER/DIR (UTC) (F) (DEG/KT/KT) (MB) (FT/S) (FT/S/D) 5E ST. MARYS GA 2221 57 N/A 2/11 FRYING PAN BUOY 2250 51 63 320/ 25/ 31 1020.3R 6/ 5 BUOY 41025 2250 46 68 330/ 17/ 23 1017.5R 5/ 8 2/ 30/ 8 CAPE LOOKOUT NC 2200 47 330/ 17/ 21 1018.1R BUOY 41002 2250 60 71 320/ 27/ 31 1015.6R 13/ 9 BUOY 41010 2220 68 73 320/ 21/ 27 1019.1R ST AUGUSTINE FL 2300 58 10/ 8/ 9 1022.4R $$

USA.gov is the U.S. government's official web portal to all federal, state and local government web resources and services.